Regional Weather Roundup
Issued by NWS

Home | Current Version | Previous Version | Graphics & Text | Print | Product List | Glossary On
Versions: 1 2 3 4 5 6 7 8 9 10 11 12 13 14 15 16 17 18 19 20 21 22 23 24 25 26 27
000
ASUS45 KBOU 281107
RWRCO

WEATHER ROUNDUP FOR COLORADO
NATIONAL WEATHER SERVICE DENVER/BOULDER CO
500 AM MDT SUN MAY 28 2017

NOTE: "FAIR" INDICATES FEW OR NO CLOUDS BELOW 12000 FEET WITH NO
SIGNIFICANT WEATHER AND/OR OBSTRUCTIONS TO VISIBILITY.

COZ001>005-013-030-031-281200-
...NORTHWEST COLORADO...

CITY           SKY/WX    TMP DP  RH WIND       PRES   REMARKS
CRAIG          FAIR      32  28  85 CALM      30.34S
HAYDEN         FAIR      36  28  75 E9        30.34S
MEEKER         FAIR      32  28  85 NE3       30.34R
RABBIT EARS PA NOT AVBL
STEAMBOAT SPGS NOT AVBL
WALDEN         NOT AVBL
$$

COZ006>008-011-281200-
...WEST CENTRAL VALLEYS...

CITY           SKY/WX    TMP DP  RH WIND       PRES   REMARKS
GRAND JUNCTION FAIR      48  32  53 CALM      30.25R
MONTROSE       FAIR      41  30  65 SE7       30.31S
EAGLE          FAIR      30  29  96 E3        30.40R
RIFLE          FAIR      37  29  72 E5        30.32R
DELTA          FAIR      44  30  56 NE6       30.29R
NUCLA          FAIR      41  28  60 SE9       30.31S
$$

COZ017>023-064>068-281200-
...SOUTHWEST COLORADO...

CITY           SKY/WX    TMP DP  RH WIND       PRES   REMARKS
DURANGO        FAIR      37  23  56 N6        30.26R
CORTEZ         FAIR      36  28  73 NE6       30.24S
PAGOSA SPRINGS FAIR      34  22  59 N3        30.30R
TELLURIDE      FAIR      34  23  64 CALM      30.38S
WOLF CREEK PAS NOT AVBL
$$

COZ009-010-012-014-032>034-037-058>063-281200-
...CENTRAL COLORADO...

CITY           SKY/WX    TMP DP  RH WIND       PRES   REMARKS
ASPEN          FAIR      32  27  81 SW7       30.36S WCI  26
BUENA VISTA    FAIR      33  25  74 N3        30.38S
COPPER MTN     NOT AVBL
BERTHOUD PASS  NOT AVBL
COTTONWOOD PAS NOT AVBL
GUNNISON       FAIR      30  25  81 CALM      30.38R
KREMMLING      NOT AVBL
LEADVILLE      FAIR      21  18  88 CALM      30.41R
SALIDA         FAIR      33  26  76 SW5       30.45R WCI  29
SUNLIGHT       NOT AVBL
WILKERSON PASS NOT AVBL
$$

COZ069>075-281200-
...SAN LUIS VALLEY/SANGRE DE CRISTO MOUNTAINS...

CITY           SKY/WX    TMP DP  RH WIND       PRES   REMARKS
ALAMOSA        FAIR      32  29  88 SW3       30.33R
DEL NORTE      NOT AVBL
LA VETA PASS   NOT AVBL
SAGUACHE       NOT AVBL
$$

COZ035-036-038>040-281200-
...NORTHERN COLORADO FRONT RANGE...

CITY           SKY/WX    TMP DP  RH WIND       PRES   REMARKS
DENVER INTL AP FAIR      42  36  79 SW9       30.25R
DMNS CITY PARK   N/A     44  35  71 SE7       30.26R
AURORA         PTCLDY    42  36  79 SW7       30.26S
FRONT RANGE AP NOT AVBL
ERIE MUNI ARPT NOT AVBL
BOULDER MUN AP NOT AVBL
CENTENNIAL     FAIR      44  34  67 SW10      30.27R
BROOMFIELD     NOT AVBL
FORT COLLINS   FAIR      43  39  86 SW3       30.24S
LONGMONT       NOT AVBL
$$

COZ041-046-047-076>085-087-088-281200-
...PIKES PEAK/PALMER DIVIDE AND SOUTHERN FOOTHILLS...

CITY           SKY/WX    TMP DP  RH WIND       PRES   REMARKS
COLO. SPRINGS  FAIR      45  33  63 NW10      30.28F
A. F. ACADEMY  FAIR      33  32  94 N8        30.29S WCI  27
SCHRIEVER AFB  FAIR      46  31  57 NW14G21   30.28S
CHEYENNE MTN   FAIR      48  24  39 NW14G24   30.24S
ELLICOTT       FAIR     N/A N/A N/A N3        30.26S
FALCON         FAIR      41  31  67 NW8       30.30S
FORT CARSON    FAIR      40  34  79 NW8       30.26S
LIMON          FAIR      39  37  92 NW7       30.23S
MONUMENT HILL  NOT AVBL
CANON CITY     NOT AVBL
WALSENBURG     FAIR      45  41  87 W14       30.29S
TRINIDAD       FAIR      41  36  82 W9        30.27S
$$

COZ042>045-048>051-090-091-281200-
...NORTHEAST COLORADO...

CITY           SKY/WX    TMP DP  RH WIND       PRES   REMARKS
GREELEY ARPT   FAIR      38  37  97 CALM      30.23S
AKRON          FAIR      42  39  89 W15       30.19S
BURLINGTON     FAIR      46  41  82 W12       30.16S
WRAY           FAIR      46  43  87 W13       30.14R
YUMA           NOT AVBL
STERLING       NOT AVBL
HOLYOKE        NOT AVBL
FORT MORGAN    FAIR      39  37  94 W8        30.21R
$$

COZ086-089-092>099-281200-
...SOUTHEAST COLORADO...

CITY           SKY/WX    TMP DP  RH WIND       PRES   REMARKS
PUEBLO         FAIR      45  41  86 W9        30.24S
LA JUNTA       FAIR      47  44  90 W12       30.21R
LAMAR          FAIR      45  42  89 W8        30.15S
SPRINGFIELD      N/A     46  44  93 NW15      30.18S
$$




USA.gov is the U.S. government's official web portal to all federal, state and local government web resources and services.